Winchcombe, United Kingdom

8:39 PM GMT on December 03, 2016 (GMT +0000)
Staverton

Weather History for EGBJ - December, 2013

Change the Weather History Date:

Thursday, December 12, 2013

  Actual Average Record
Temperature  
Mean Temperature 50 °F -  
Max Temperature 55 °F 45 °F 57 °F (2000)
Min Temperature 44 °F 39 °F 23 °F (2012)
Degree Days  
Heating Degree Days 16    
Moisture  
Dew Point 45 °F    
Average Humidity 78    
Maximum Humidity 87    
Minimum Humidity 72    
Precipitation  
Precipitation 0.00 in - - ()
Sea Level Pressure  
Sea Level Pressure 30.17 in    
Wind  
Wind Speed 6 mph ()    
Max Wind Speed 13 mph    
Max Gust Speed -    
Visibility 5.7 miles    
Events      
Averages and records for this station are not official NWS values.
T = Trace of Precipitation, MM = Missing Value Source: Averaged Metar Reports

Daily Weather History Graph

Daily Weather History Graph

Search for Another Location

Airport or City:

Trip Planner

Search our weather history database for the weather conditions in past years. The results will help you decide how hot, cold, wet, or windy it might be!

Date:

Astronomy

Dec. 12, 2013 Rise Set
Actual Time 8:07 AM GMT 3:57 PM GMT
Civil Twilight 7:26 AM GMT 4:38 PM GMT
Nautical Twilight 6:43 AM GMT 5:21 PM GMT
Astronomical Twilight 6:02 AM GMT 6:02 PM GMT
Moon 1:22 PM GMT (12/12) 2:46 AM GMT (12/12)
Length of Visible Light 9h 11m
Length of Day
7h 50m
Waxing Gibbous, 78% of the Moon is Illuminated
Dec 12
Waxing Gibbous
Dec 17
Full
Dec 25
Last Quarter
Jan 1
New
Jan 8
First Quarter

Hourly Weather History & Observations

Time (GMT) Temp. Windchill Dew Point Humidity Pressure Visibility Wind Dir Wind Speed Gust Speed Precip Events Conditions
6:50 AM 44.6 °F 43.1 °F 41.0 °F 87% 30.18 in 5.6 mi South 3.5 mph - N/A   Partly Cloudy
7:20 AM 46.4 °F 45.2 °F 41.0 °F 81% 30.18 in 5.6 mi SSE 3.5 mph - N/A   Scattered Clouds
7:50 AM 46.4 °F 42.9 °F 41.0 °F 81% 30.18 in 5.6 mi South 6.9 mph - N/A   Partly Cloudy
8:20 AM 48.2 °F - 41.0 °F 76% 30.18 in 5.6 mi South 8.1 mph - N/A   Partly Cloudy
8:50 AM 48.2 °F - 41.0 °F 76% 30.18 in 5.6 mi South 8.1 mph - N/A   Partly Cloudy
9:20 AM 50.0 °F - 42.8 °F 76% 30.18 in 5.6 mi South 5.8 mph - N/A   Partly Cloudy
9:50 AM 50.0 °F - 42.8 °F 76% 30.21 in 6.2 mi South 6.9 mph - N/A   Partly Cloudy
10:20 AM 50.0 °F - 42.8 °F 76% 30.21 in 6.2 mi South 5.8 mph - N/A   Partly Cloudy
10:50 AM 50.0 °F - 44.6 °F 82% 30.21 in 6.2 mi South 8.1 mph - N/A   Scattered Clouds
11:20 AM 51.8 °F - 44.6 °F 76% 30.21 in 5.6 mi South 9.2 mph - N/A   Scattered Clouds
11:50 AM 51.8 °F - 44.6 °F 76% 30.18 in 5.6 mi South 9.2 mph - N/A   Unknown
12:20 PM 51.8 °F - 46.4 °F 82% 30.18 in 5.6 mi South 8.1 mph - N/A   Unknown
12:50 PM 53.6 °F - 46.4 °F 77% 30.18 in - South 8.1 mph - N/A   Clear
1:20 PM 53.6 °F - 46.4 °F 77% 30.18 in 5.6 mi South 8.1 mph - N/A   Unknown
1:50 PM 53.6 °F - 46.4 °F 77% 30.18 in 5.6 mi SSW 6.9 mph - N/A   Unknown
2:20 PM 53.6 °F - 46.4 °F 77% 30.18 in 5.6 mi South 8.1 mph - N/A   Unknown
2:50 PM 53.6 °F - 46.4 °F 77% 30.15 in 5.6 mi South 8.1 mph - N/A   Unknown
3:20 PM 53.6 °F - 46.4 °F 77% 30.15 in 5.6 mi South 8.1 mph - N/A   Unknown
3:50 PM 53.6 °F - 48.2 °F 82% 30.15 in 5.6 mi South 6.9 mph - N/A   Unknown
4:20 PM 55.4 °F - 48.2 °F 77% 30.15 in 5.6 mi SSE 9.2 mph - N/A   Unknown
4:50 PM 53.6 °F - 48.2 °F 82% 30.15 in 5.6 mi SSE 6.9 mph - N/A   Mostly Cloudy
5:20 PM 55.4 °F - 48.2 °F 77% 30.15 in 5.6 mi South 10.4 mph - N/A   Mostly Cloudy
5:50 PM 53.6 °F - 46.4 °F 77% 30.15 in 5.6 mi South 8.1 mph - N/A   Mostly Cloudy
6:20 PM 55.4 °F - 46.4 °F 72% 30.15 in 5.6 mi South 12.7 mph - N/A   Mostly Cloudy
6:50 PM 53.6 °F - 46.4 °F 77% 30.15 in 5.6 mi South 10.4 mph - N/A   Mostly Cloudy